SWR15X KJFK-LSZH

Flight info

Callsign SWR15X
Flight time N/A
Altitude 35000
Route DCT GREKI DCT JUDDS DCT MARTN DCT EBONY N733B LOMSI/M082F380 DCT 55N050W 56N040W 56N030W 55N020W DCT DOGAL DCT BEXET/N0473F390 DCT EVRIN DCT JETZI DCT AMFUL DCT CAWZE DCT SIRIC P2 NIGIT L18 MID UL612 RESMI UN491 POGZI DCT GELTA DCT MANAG DCT PEVIT DCT BLM BLM3G
Aircraft A339/H-SADE1E2E3GHIJ3J5M1P2RWXY/LB2D1

Departure

Time 2026-04-30 10:03
Airport John F. Kennedy International Airport (KJFK)

Arrival

Time N/A
Airport Zürich Airport (LSZH)
Time Latitude Longitude Altitude Speed Heading
2026-04-30 09:54 40.65285 -73.81415 23 ft 0 kts 210°
2026-04-30 09:57 40.65282 -73.81416 23 ft 1 kts 210°
2026-04-30 09:57 40.65281 -73.81418 23 ft 0 kts 210°
2026-04-30 09:57 40.65274 -73.81423 23 ft 1 kts 213°
2026-04-30 09:58 40.65261 -73.81441 23 ft 3 kts 235°
2026-04-30 09:58 40.65250 -73.81480 23 ft 5 kts 254°
2026-04-30 09:58 40.65239 -73.81538 23 ft 7 kts 258°
2026-04-30 09:58 40.65231 -73.81611 23 ft 8 kts 263°
2026-04-30 09:59 40.65212 -73.81773 23 ft 5 kts 219°
2026-04-30 09:59 40.65142 -73.81728 23 ft 6 kts 129°
2026-04-30 10:00 40.65078 -73.81602 23 ft 9 kts 121°
2026-04-30 10:00 40.65034 -73.81543 23 ft 9 kts 167°
2026-04-30 10:01 40.64903 -73.81591 23 ft 11 kts 205°
2026-04-30 10:01 40.64832 -73.81628 23 ft 9 kts 185°
2026-04-30 10:01 40.64790 -73.81588 23 ft 8 kts 123°
2026-04-30 10:02 40.64697 -73.81351 23 ft 47 kts 120°
2026-04-30 10:02 40.64397 -73.80714 24 ft 114 kts 121°
2026-04-30 10:02 40.63890 -73.79579 22 ft 169 kts 121°
2026-04-30 10:02 40.63260 -73.78185 486 ft 182 kts 121°
2026-04-30 10:03 40.62647 -73.76801 1361 ft 171 kts 122°
2026-04-30 10:03 40.62177 -73.75382 1947 ft 177 kts 96°
2026-04-30 10:03 40.62534 -73.73783 2233 ft 197 kts 52°
2026-04-30 10:03 40.63718 -73.72752 2532 ft 215 kts
2026-04-30 10:04 40.65207 -73.72998 2854 ft 225 kts 328°
2026-04-30 10:04 40.66535 -73.74154 3201 ft 240 kts 327°
2026-04-30 10:04 40.68205 -73.74719 3514 ft 264 kts
2026-04-30 10:04 40.69973 -73.73907 4011 ft 276 kts 28°
2026-04-30 10:05 40.71661 -73.72639 4694 ft 279 kts 28°
2026-04-30 10:05 40.73373 -73.71421 5374 ft 282 kts 26°
2026-04-30 10:05 40.75124 -73.70290 6011 ft 284 kts 23°
2026-04-30 10:05 40.76933 -73.69219 6640 ft 288 kts 21°
2026-04-30 10:06 40.78783 -73.68182 7212 ft 292 kts 21°
2026-04-30 10:06 40.80679 -73.67152 7814 ft 296 kts 20°
2026-04-30 10:06 40.82593 -73.66131 8421 ft 299 kts 20°
2026-04-30 10:06 40.84531 -73.65102 8999 ft 303 kts 20°
2026-04-30 10:07 40.86489 -73.64070 9558 ft 307 kts 20°
2026-04-30 10:07 40.88476 -73.63027 10115 ft 311 kts 20°
2026-04-30 10:07 40.90549 -73.61938 10439 ft 325 kts 20°
2026-04-30 10:07 40.92688 -73.60813 10708 ft 340 kts 20°
2026-04-30 10:08 40.94917 -73.59641 10970 ft 355 kts 20°
2026-04-30 10:08 40.97261 -73.58406 11227 ft 370 kts 20°
2026-04-30 10:08 40.99703 -73.57120 11480 ft 384 kts 20°
2026-04-30 10:08 41.02243 -73.55780 11743 ft 398 kts 20°
2026-04-30 10:09 41.04818 -73.54419 12197 ft 405 kts 20°